| time (UTC) | temp C | wind direction | speed KPH | gust KPH | rain 1hr cm | rain 24hr cm | rain mn cm | humidity % | barometer mb |
| 20260502221516 | 11 | 0.0 | 3.2 | 0.13 | 0.43 | 0.43 | 94 | 1011.5 | |
| 20260502220516 | 11 | 0.0 | 3.2 | 0.10 | 0.38 | 0.38 | 94 | 1011.4 | |
| 20260502215516 | 11 | 338 | 1.6 | 4.8 | 0.08 | 0.36 | 0.36 | 94 | 1011.4 |
| 20260502214516 | 11 | 0.0 | 3.2 | 0.10 | 0.36 | 0.36 | 93 | 1011.5 | |
| 20260502213516 | 11 | 315 | 1.6 | 4.8 | 0.08 | 0.33 | 0.33 | 93 | 1011.4 |
| 20260502212516 | 11 | 315 | 1.6 | 4.8 | 0.10 | 0.33 | 0.33 | 93 | 1011.6 |
| 20260502211516 | 12 | 0.0 | 1.6 | 0.05 | 0.30 | 0.30 | 93 | 1011.6 | |
| 20260502210516 | 12 | 0.0 | 3.2 | 0.08 | 0.28 | 0.28 | 92 | 1011.7 | |
| 20260502205516 | 12 | 0.0 | 3.2 | 0.10 | 0.28 | 0.28 | 92 | 1011.8 | |
| 20260502204516 | 12 | 0.0 | 3.2 | 0.13 | 0.25 | 0.25 | 91 | 1011.8 | |
| 20260502203536 | 12 | 0.0 | 3.2 | 0.15 | 0.25 | 0.25 | 90 | 1011.9 | |
| 20260502202516 | 12 | 0.0 | 1.6 | 0.15 | 0.23 | 0.23 | 89 | 1012.1 | |
| 20260502201516 | 12 | 0.0 | 3.2 | 0.18 | 0.23 | 0.23 | 89 | 1012.2 | |
| 20260502200516 | 12 | 0.0 | 1.6 | 0.18 | 0.20 | 0.20 | 88 | 1012.3 | |
| 20260502195556 | 12 | 0.0 | 0.0 | 0.15 | 0.18 | 0.18 | 87 | 1012.4 | |
| 20260502194516 | 13 | 0.0 | 0.0 | 0.13 | 0.15 | 0.15 | 86 | 1012.4 | |
| 20260502193536 | 13 | 0.0 | 1.6 | 0.10 | 0.13 | 0.13 | 85 | 1012.4 | |
| 20260502192516 | 13 | 0.0 | 1.6 | 0.05 | 0.08 | 0.08 | 84 | 1012.3 | |
| 20260502191516 | 13 | 0.0 | 0.0 | 0.05 | 0.05 | 0.05 | 83 | 1012.2 | |
| 20260502190516 | 13 | 0.0 | 1.6 | 0.00 | 0.03 | 0.03 | 81 | 1012.3 | |
| 20260502185516 | 13 | 0.0 | 0.0 | 0.00 | 0.03 | 0.03 | 79 | 1012.2 | |
| 20260502184516 | 14 | 0.0 | 1.6 | 0.00 | 0.03 | 0.03 | 78 | 1012.2 | |
| 20260502183536 | 14 | 0 | 1.6 | 4.8 | 0.00 | 0.03 | 0.03 | 76 | 1012.1 |
| 20260502182516 | 15 | 315 | 1.6 | 6.4 | 0.00 | 0.03 | 0.03 | 74 | 1012.1 |
| 20260502181516 | 15 | 293 | 1.6 | 6.4 | 0.00 | 0.03 | 0.03 | 72 | 1012.1 |
| 20260502180516 | 16 | 0.0 | 1.6 | 0.00 | 0.03 | 0.03 | 69 | 1012.1 | |
| 20260502163516 | 17 | 0.0 | 3.2 | 0.00 | 0.05 | 0.03 | 58 | 1012.5 | |
| 20260502162516 | 17 | 0.0 | 3.2 | 0.00 | 0.05 | 0.03 | 58 | 1012.5 | |
| 20260502161516 | 17 | 113 | 1.6 | 4.8 | 0.00 | 0.05 | 0.03 | 57 | 1012.5 |
| 20260502160516 | 17 | 113 | 1.6 | 4.8 | 0.00 | 0.05 | 0.03 | 57 | 1012.6 |
| 20260502151516 | 17 | 135 | 3.2 | 6.4 | 0.00 | 0.08 | 0.03 | 56 | 1013.2 |
| 20260502150516 | 17 | 113 | 1.6 | 4.8 | 0.00 | 0.08 | 0.03 | 56 | 1013.2 |
| 20260502130536 | 17 | 0.0 | 0.0 | 0.00 | 0.08 | 0.03 | 58 | 1014.5 | |
| 20260502123516 | 17 | 203 | 1.6 | 4.8 | 0.00 | 0.08 | 0.03 | 59 | 1014.8 |
| 20260502122536 | 17 | 135 | 1.6 | 6.4 | 0.00 | 0.08 | 0.03 | 59 | 1015.1 |
| 20260502121515 | 17 | 90 | 1.6 | 6.4 | 0.00 | 0.08 | 0.03 | 60 | 1015.2 |
| 20260502120535 | 17 | 203 | 1.6 | 6.4 | 0.00 | 0.08 | 0.03 | 62 | 1015.2 |
| 20260502115516 | 17 | 203 | 3.2 | 11.3 | 0.00 | 0.08 | 0.03 | 61 | 1015.4 |
| 20260502114515 | 17 | 113 | 1.6 | 6.4 | 0.00 | 0.08 | 0.03 | 61 | 1015.5 |
| 20260502113515 | 17 | 113 | 1.6 | 3.2 | 0.00 | 0.08 | 0.03 | 62 | 1015.6 |
| 20260502112515 | 16 | 113 | 1.6 | 6.4 | 0.00 | 0.08 | 0.03 | 65 | 1015.7 |
| 20260502111535 | 16 | 0.0 | 3.2 | 0.00 | 0.08 | 0.03 | 63 | 1015.8 | |
| 20260502110515 | 16 | 203 | 1.6 | 6.4 | 0.00 | 0.08 | 0.03 | 64 | 1015.8 |
| 20260502105515 | 16 | 225 | 1.6 | 4.8 | 0.00 | 0.08 | 0.03 | 64 | 1015.8 |
| 20260502104515 | 16 | 90 | 1.6 | 6.4 | 0.00 | 0.08 | 0.03 | 67 | 1016.0 |
| 20260502103515 | 16 | 0.0 | 3.2 | 0.00 | 0.08 | 0.03 | 69 | 1016.0 | |
| 20260502102515 | 15 | 225 | 1.6 | 8.0 | 0.00 | 0.08 | 0.03 | 68 | 1016.1 |
| 20260502100535 | 15 | 203 | 1.6 | 4.8 | 0.00 | 0.08 | 0.03 | 73 | 1016.1 |
| 20260502091515 | 14 | 135 | 1.6 | 4.8 | 0.00 | 0.08 | 0.03 | 74 | 1016.8 |
| 20260502090515 | 14 | 203 | 1.6 | 4.8 | 0.00 | 0.08 | 0.03 | 75 | 1016.7 |
| 20260502071517 | 9 | 0.0 | 4.8 | 0.00 | 0.08 | 0.03 | 92 | 1017.4 | |
| 20260502070517 | 9 | 0.0 | 3.2 | 0.00 | 0.08 | 0.03 | 93 | 1017.4 | |
| 20260502065535 | 8 | 0.0 | 3.2 | 0.00 | 0.08 | 0.03 | 94 | 1017.3 | |
| 20260502064517 | 8 | 0.0 | 3.2 | 0.00 | 0.08 | 0.03 | 95 | 1017.2 | |
| 20260502063517 | 7 | 0.0 | 1.6 | 0.00 | 0.08 | 0.03 | 96 | 1017.2 | |
| 20260502062517 | 7 | 0.0 | 1.6 | 0.00 | 0.08 | 0.03 | 96 | 1017.1 | |
| 20260502061517 | 6 | 0.0 | 1.6 | 0.00 | 0.08 | 0.03 | 96 | 1017.0 | |
| 20260502060517 | 6 | 0.0 | 0.0 | 0.00 | 0.08 | 0.03 | 95 | 1017.0 | |
| 20260502055517 | 6 | 0.0 | 0.0 | 0.00 | 0.08 | 0.03 | 95 | 1017.0 | |
| 20260502054517 | 6 | 0.0 | 1.6 | 0.00 | 0.08 | 0.03 | 94 | 1017.0 | |
| 20260502053517 | 6 | 0.0 | 0.0 | 0.00 | 0.08 | 0.03 | 95 | 1017.0 | |
| 20260502052517 | 6 | 0.0 | 0.0 | 0.00 | 0.08 | 0.03 | 96 | 1016.9 | |
| 20260502051517 | 6 | 0.0 | 0.0 | 0.00 | 0.08 | 0.03 | 95 | 1017.0 | |
| 20260502050517 | 6 | 0.0 | 0.0 | 0.00 | 0.08 | 0.03 | 94 | 1016.9 | |
| 20260502045517 | 6 | 0.0 | 0.0 | 0.00 | 0.08 | 0.03 | 95 | 1017.0 | |
| 20260502044517 | 6 | 0.0 | 0.0 | 0.00 | 0.08 | 0.03 | 95 | 1016.9 | |
| 20260502043517 | 6 | 0.0 | 1.6 | 0.00 | 0.08 | 0.03 | 95 | 1016.8 | |
| 20260502042517 | 6 | 0.0 | 1.6 | 0.00 | 0.08 | 0.03 | 95 | 1016.7 | |
| 20260502041517 | 6 | 0.0 | 1.6 | 0.00 | 0.08 | 0.03 | 95 | 1016.9 | |
| 20260502040517 | 6 | 0.0 | 0.0 | 0.00 | 0.08 | 0.03 | 95 | 1016.9 | |
| 20260502035517 | 6 | 0.0 | 1.6 | 0.00 | 0.08 | 0.03 | 95 | 1016.9 | |
| 20260502034517 | 6 | 0.0 | 0.0 | 0.00 | 0.08 | 0.03 | 95 | 1017.0 | |
| 20260502033517 | 6 | 0.0 | 1.6 | 0.00 | 0.08 | 0.03 | 95 | 1017.0 | |
| 20260502032517 | 7 | 0.0 | 1.6 | 0.00 | 0.08 | 0.03 | 95 | 1017.0 | |
| 20260502031517 | 7 | 0.0 | 0.0 | 0.00 | 0.08 | 0.03 | 95 | 1017.1 | |
| 20260502030517 | 6 | 0.0 | 0.0 | 0.00 | 0.08 | 0.03 | 95 | 1017.2 | |
| 20260502025517 | 6 | 0.0 | 0.0 | 0.00 | 0.08 | 0.03 | 94 | 1017.2 | |
| 20260502024516 | 7 | 0.0 | 0.0 | 0.00 | 0.08 | 0.03 | 94 | 1017.2 | |
| 20260502023537 | 7 | 0.0 | 0.0 | 0.00 | 0.08 | 0.03 | 94 | 1017.3 | |
| 20260502022516 | 7 | 0.0 | 0.0 | 0.00 | 0.08 | 0.03 | 94 | 1017.3 | |
| 20260502021517 | 7 | 0.0 | 0.0 | 0.00 | 0.08 | 0.03 | 94 | 1017.3 | |
| 20260502020537 | 7 | 0.0 | 0.0 | 0.00 | 0.08 | 0.03 | 94 | 1017.4 | |
| 20260502015516 | 7 | 0.0 | 0.0 | 0.00 | 0.08 | 0.03 | 94 | 1017.6 | |
| 20260502014516 | 7 | 0.0 | 0.0 | 0.00 | 0.08 | 0.03 | 93 | 1017.7 | |
| 20260502013537 | 7 | 0.0 | 0.0 | 0.03 | 0.08 | 0.03 | 93 | 1017.9 | |
| 20260502012517 | 7 | 0.0 | 0.0 | 0.03 | 0.08 | 0.03 | 93 | 1018.0 | |
| 20260502011537 | 7 | 0.0 | 0.0 | 0.03 | 0.08 | 0.03 | 93 | 1018.0 | |
| 20260502010516 | 8 | 0.0 | 0.0 | 0.03 | 0.08 | 0.03 | 93 | 1018.1 | |
| 20260502005517 | 8 | 0.0 | 0.0 | 0.03 | 0.08 | 0.03 | 93 | 1018.2 | |
| 20260502004516 | 8 | 0.0 | 0.0 | 0.03 | 0.08 | 0.03 | 93 | 1018.2 | |
| 20260502003517 | 8 | 0.0 | 0.0 | 0.00 | 0.05 | 0.00 | 93 | 1018.2 | |
| 20260502002516 | 8 | 0.0 | 0.0 | 0.00 | 0.05 | 0.00 | 92 | 1018.4 | |
| 20260502001516 | 8 | 0.0 | 3.2 | 0.00 | 0.05 | 0.00 | 93 | 1018.3 | |
| 20260502000516 | 8 | 203 | 1.6 | 3.2 | 0.00 | 0.05 | 0.00 | 94 | 1018.5 |
| 20260501235516 | 8 | 0.0 | 1.6 | 0.00 | 0.05 | 0.00 | 93 | 1018.5 | |
| 20260501234516 | 8 | 0.0 | 1.6 | 0.00 | 0.05 | 0.00 | 94 | 1018.5 | |
| 20260501233516 | 8 | 0.0 | 3.2 | 0.00 | 0.05 | 0.00 | 95 | 1018.5 | |
| 20260501232516 | 8 | 0.0 | 1.6 | 0.00 | 0.05 | 0.00 | 95 | 1018.6 | |
| 20260501231516 | 8 | 0.0 | 0.0 | 0.00 | 0.05 | 0.00 | 95 | 1018.9 | |
| 20260501230516 | 8 | 0.0 | 0.0 | 0.00 | 0.05 | 0.00 | 95 | 1018.7 | |
| 20260501225516 | 8 | 0.0 | 0.0 | 0.00 | 0.05 | 0.05 | 94 | 1018.7 | |
| 20260501224516 | 8 | 0.0 | 0.0 | 0.00 | 0.05 | 0.05 | 94 | 1018.6 | |
| 20260501223516 | 8 | 0.0 | 0.0 | 0.00 | 0.05 | 0.05 | 95 | 1018.7 | |
| 20260501222516 | 8 | 0.0 | 0.0 | 0.00 | 0.05 | 0.05 | 95 | 1018.7 |